Location: Glenbow
(51.1592°N, 114.3828°W)
Time: 14:23:21
(UTC+00:00)

Envisat - Pass Details

Date: 01 December 2021
Orbit: 764 x 766 km, 98.2° (Epoch: 28 January)

Event Time Altitude Azimuth Distance (km) Brightness Sun altitude
Rises 12:22:38 0° 17° (NNE) 3,248 6.4 -26.8°
Reaches altitude 10° 12:25:01 10° 23° (NNE) 2,316 5.7 -26.4°
Maximum altitude 12:30:00 52° 100° (E) 954 3.8 -25.6°
Drops below altitude 10° 12:34:56 10° 176° (S) 2,299 5.5 -24.9°
Sets 12:37:17 0° 181° (S) 3,220 6.3 -24.5°
